Time,TemperatureF,DewpointF,PressureIn,WindDirection,WindDirectionDegrees,WindSpeedMPH,WindSpeedGustMPH,Humidity,HourlyPrecipIn,Conditions,Clouds,dailyrainin,SoftwareType,DateUTC
2013-02-02 00:01:00,29.0,24.0,-100.00,South,180,6.0,7.0,81,-99.99,,,-99.99,,2013-02-02 08:01:00,
2013-02-02 00:11:00,29.0,24.0,-100.00,South,180,5.0,7.0,81,-99.99,,,-99.99,,2013-02-02 08:11:00,
2013-02-02 00:21:00,29.0,24.0,-100.00,South,180,5.0,7.0,81,-99.99,,,-99.99,,2013-02-02 08:21:00,
2013-02-02 00:31:00,28.0,23.0,-100.00,South,180,8.0,9.0,82,-99.99,,,-99.99,,2013-02-02 08:31:00,
2013-02-02 00:42:00,28.0,23.0,-100.00,South,180,8.0,9.0,82,-99.99,,,-99.99,,2013-02-02 08:42:00,
2013-02-02 00:53:00,28.0,23.0,-100.00,South,180,8.0,9.0,82,-99.99,,,-99.99,,2013-02-02 08:53:00,
2013-02-02 01:01:00,28.0,23.0,-100.00,South,180,5.0,8.0,82,-99.99,,,-99.99,,2013-02-02 09:01:00,
2013-02-02 01:11:00,28.0,23.0,-100.00,South,180,7.0,8.0,82,-99.99,,,-99.99,,2013-02-02 09:11:00,
2013-02-02 01:22:00,28.0,23.0,-100.00,South,180,7.0,8.0,82,-99.99,,,-99.99,,2013-02-02 09:22:00,
2013-02-02 01:31:00,28.0,23.0,-100.00,South,180,6.0,8.0,83,-99.99,,,-99.99,,2013-02-02 09:31:00,
2013-02-02 01:41:00,27.0,23.0,-100.00,South,180,4.0,8.0,83,-99.99,,,-99.99,,2013-02-02 09:41:00,
2013-02-02 01:52:00,27.0,23.0,-100.00,South,180,4.0,8.0,83,-99.99,,,-99.99,,2013-02-02 09:52:00,
2013-02-02 02:01:00,27.0,23.0,-100.00,South,180,6.0,8.0,84,-99.99,,,-99.99,,2013-02-02 10:01:00,
2013-02-02 02:11:00,27.0,23.0,-100.00,SW,225,4.0,6.0,84,-99.99,,,-99.99,,2013-02-02 10:11:00,
2013-02-02 02:21:00,27.0,23.0,-100.00,SW,225,4.0,6.0,84,-99.99,,,-99.99,,2013-02-02 10:21:00,
2013-02-02 02:31:00,27.0,23.0,-100.00,South,180,6.0,8.0,85,-99.99,,,-99.99,,2013-02-02 10:31:00,
2013-02-02 02:41:00,27.0,23.0,-100.00,South,180,4.0,6.0,85,-99.99,,,-99.99,,2013-02-02 10:41:00,
2013-02-02 02:52:00,27.0,23.0,-100.00,South,180,4.0,6.0,85,-99.99,,,-99.99,,2013-02-02 10:52:00,
2013-02-02 03:01:00,27.0,23.0,-100.00,South,180,6.0,7.0,86,-99.99,,,-99.99,,2013-02-02 11:01:00,
2013-02-02 03:11:00,26.0,23.0,-100.00,South,180,3.0,6.0,86,-99.99,,,-99.99,,2013-02-02 11:11:00,
2013-02-02 03:21:00,26.0,23.0,-100.00,South,180,3.0,6.0,86,-99.99,,,-99.99,,2013-02-02 11:21:00,
2013-02-02 03:31:00,26.0,23.0,-100.00,South,180,4.0,6.0,87,-99.99,,,-99.99,,2013-02-02 11:31:00,
2013-02-02 03:41:00,26.0,23.0,-100.00,South,180,5.0,6.0,87,-99.99,,,-99.99,,2013-02-02 11:41:00,
2013-02-02 03:52:00,26.0,23.0,-100.00,South,180,5.0,6.0,87,-99.99,,,-99.99,,2013-02-02 11:52:00,
2013-02-02 04:01:00,26.0,22.0,-100.00,South,180,4.0,6.0,87,-99.99,,,-99.99,,2013-02-02 12:01:00,
2013-02-02 04:11:00,26.0,22.0,-100.00,South,180,4.0,6.0,87,-99.99,,,-99.99,,2013-02-02 12:11:00,
2013-02-02 04:22:00,26.0,22.0,-100.00,South,180,4.0,6.0,87,-99.99,,,-99.99,,2013-02-02 12:22:00,
2013-02-02 04:32:00,25.0,22.0,-100.00,South,180,4.0,6.0,87,-99.99,,,-99.99,,2013-02-02 12:32:00,
2013-02-02 04:42:00,25.0,22.0,-100.00,South,180,7.0,8.0,88,-99.99,,,-99.99,,2013-02-02 12:42:00,
2013-02-02 04:52:00,25.0,22.0,-100.00,South,180,7.0,8.0,88,-99.99,,,-99.99,,2013-02-02 12:52:00,
2013-02-02 05:02:00,25.0,22.0,-100.00,South,180,4.0,7.0,88,-99.99,,,-99.99,,2013-02-02 13:02:00,
2013-02-02 05:11:00,25.0,22.0,-100.00,South,180,7.0,8.0,88,-99.99,,,-99.99,,2013-02-02 13:11:00,
2013-02-02 05:21:00,25.0,22.0,-100.00,South,180,7.0,8.0,88,-99.99,,,-99.99,,2013-02-02 13:21:00,
2013-02-02 05:32:00,25.0,22.0,-100.00,South,180,6.0,9.0,88,-99.99,,,-99.99,,2013-02-02 13:32:00,
2013-02-02 05:42:00,25.0,22.0,-100.00,South,180,7.0,10.0,88,-99.99,,,-99.99,,2013-02-02 13:42:00,
2013-02-02 05:52:00,25.0,22.0,-100.00,South,180,7.0,10.0,88,-99.99,,,-99.99,,2013-02-02 13:52:00,
2013-02-02 06:02:00,26.0,23.0,-100.00,South,180,8.0,10.0,88,-99.99,,,-99.99,,2013-02-02 14:02:00,
2013-02-02 06:11:00,26.0,23.0,-100.00,South,180,7.0,9.0,88,-99.99,,,-99.99,,2013-02-02 14:11:00,
2013-02-02 06:22:00,26.0,23.0,-100.00,South,180,7.0,9.0,88,-99.99,,,-99.99,,2013-02-02 14:22:00,
2013-02-02 06:32:00,26.0,23.0,-100.00,South,180,6.0,9.0,88,-99.99,,,-99.99,,2013-02-02 14:32:00,
2013-02-02 06:42:00,26.0,23.0,-100.00,South,180,6.0,8.0,87,-99.99,,,-99.99,,2013-02-02 14:42:00,
2013-02-02 06:52:00,26.0,23.0,-100.00,South,180,6.0,8.0,87,-99.99,,,-99.99,,2013-02-02 14:52:00,
2013-02-02 07:02:00,26.0,23.0,-100.00,South,180,8.0,11.0,87,-99.99,,,-99.99,,2013-02-02 15:02:00,
2013-02-02 07:12:00,26.0,23.0,-100.00,South,180,7.0,9.0,86,-99.99,,,-99.99,,2013-02-02 15:12:00,
2013-02-02 07:21:00,26.0,23.0,-100.00,South,180,7.0,9.0,86,-99.99,,,-99.99,,2013-02-02 15:21:00,
2013-02-02 07:32:00,26.0,23.0,-100.00,SW,225,7.0,12.0,86,-99.99,,,-99.99,,2013-02-02 15:32:00,
2013-02-02 07:42:00,27.0,23.0,-100.00,SW,225,7.0,10.0,85,-99.99,,,-99.99,,2013-02-02 15:42:00,
2013-02-02 07:52:00,27.0,23.0,-100.00,SW,225,7.0,10.0,85,-99.99,,,-99.99,,2013-02-02 15:52:00,
2013-02-02 08:02:00,27.0,23.0,-100.00,South,180,6.0,11.0,85,-99.99,,,-99.99,,2013-02-02 16:02:00,
2013-02-02 08:11:00,26.0,23.0,-100.00,South,180,6.0,9.0,85,-99.99,,,-99.99,,2013-02-02 16:11:00,
2013-02-02 08:22:00,26.0,23.0,-100.00,South,180,6.0,9.0,85,-99.99,,,-99.99,,2013-02-02 16:22:00,
2013-02-02 08:31:00,26.0,23.0,-100.00,South,180,6.0,10.0,85,-99.99,,,-99.99,,2013-02-02 16:31:00,
2013-02-02 08:42:00,26.0,22.0,-100.00,South,180,7.0,8.0,85,-99.99,,,-99.99,,2013-02-02 16:42:00,
2013-02-02 08:52:00,27.0,23.0,-100.00,South,180,6.0,8.0,85,-99.99,,,-99.99,,2013-02-02 16:52:00,
2013-02-02 09:02:00,27.0,23.0,-100.00,South,180,6.0,8.0,85,-99.99,,,-99.99,,2013-02-02 17:02:00,
2013-02-02 09:11:00,28.0,24.0,-100.00,South,180,6.0,9.0,84,-99.99,,,-99.99,,2013-02-02 17:11:00,
2013-02-02 09:22:00,28.0,24.0,-100.00,South,180,6.0,9.0,84,-99.99,,,-99.99,,2013-02-02 17:22:00,
2013-02-02 09:32:00,29.0,24.0,-100.00,South,180,7.0,11.0,83,-99.99,,,-99.99,,2013-02-02 17:32:00,
2013-02-02 09:41:00,30.0,25.0,-100.00,South,180,6.0,9.0,81,-99.99,,,-99.99,,2013-02-02 17:41:00,
2013-02-02 09:52:00,32.0,26.0,-100.00,SW,225,8.0,11.0,79,-99.99,,,-99.99,,2013-02-02 17:52:00,
2013-02-02 10:02:00,32.0,26.0,-100.00,SW,225,8.0,11.0,79,-99.99,,,-99.99,,2013-02-02 18:02:00,
2013-02-02 10:12:00,33.0,26.0,-100.00,SW,225,8.0,12.0,77,-99.99,,,-99.99,,2013-02-02 18:12:00,
2013-02-02 10:22:00,33.0,26.0,-100.00,SW,225,8.0,12.0,77,-99.99,,,-99.99,,2013-02-02 18:22:00,
2013-02-02 10:31:00,33.0,26.0,-100.00,SW,225,9.0,13.0,75,-99.99,,,-99.99,,2013-02-02 18:31:00,
2013-02-02 10:42:00,34.0,27.0,-100.00,SW,225,7.0,12.0,74,-99.99,,,-99.99,,2013-02-02 18:42:00,
2013-02-02 10:52:00,34.0,27.0,-100.00,SW,225,7.0,12.0,74,-99.99,,,-99.99,,2013-02-02 18:52:00,
2013-02-02 11:01:00,36.0,27.0,-100.00,SW,225,6.0,10.0,71,-99.99,,,-99.99,,2013-02-02 19:01:00,
2013-02-02 11:11:00,37.0,28.0,-100.00,SW,225,4.0,9.0,69,-99.99,,,-99.99,,2013-02-02 19:11:00,
2013-02-02 11:21:00,37.0,28.0,-100.00,SW,225,4.0,9.0,69,-99.99,,,-99.99,,2013-02-02 19:21:00,
2013-02-02 11:32:00,39.0,28.0,-100.00,SW,225,5.0,7.0,65,-99.99,,,-99.99,,2013-02-02 19:32:00,
2013-02-02 11:41:00,41.0,29.0,-100.00,South,180,3.0,6.0,62,-99.99,,,-99.99,,2013-02-02 19:41:00,
2013-02-02 11:52:00,41.0,29.0,-100.00,South,180,3.0,6.0,62,-99.99,,,-99.99,,2013-02-02 19:52:00,
2013-02-02 12:01:00,43.0,29.0,-100.00,South,180,3.0,6.0,57,-99.99,,,-99.99,,2013-02-02 20:01:00,
2013-02-02 12:11:00,45.0,28.0,-100.00,South,180,4.0,8.0,52,-99.99,,,-99.99,,2013-02-02 20:11:00,
2013-02-02 12:21:00,45.0,28.0,-100.00,South,180,4.0,8.0,52,-99.99,,,-99.99,,2013-02-02 20:21:00,
2013-02-02 12:32:00,45.0,27.0,-100.00,SE,135,8.0,10.0,49,-99.99,,,-99.99,,2013-02-02 20:32:00,
2013-02-02 12:41:00,47.0,27.0,-100.00,SE,135,4.0,7.0,47,-99.99,,,-99.99,,2013-02-02 20:41:00,
2013-02-02 12:52:00,47.0,27.0,-100.00,SE,135,4.0,7.0,47,-99.99,,,-99.99,,2013-02-02 20:52:00,
2013-02-02 13:02:00,48.0,27.0,-100.00,South,180,4.0,6.0,44,-99.99,,,-99.99,,2013-02-02 21:02:00,
2013-02-02 13:11:00,48.0,27.0,-100.00,SW,225,4.0,6.0,44,-99.99,,,-99.99,,2013-02-02 21:11:00,
2013-02-02 13:21:00,48.0,27.0,-100.00,SW,225,4.0,6.0,44,-99.99,,,-99.99,,2013-02-02 21:21:00,
2013-02-02 13:32:00,50.0,28.0,-100.00,South,180,3.0,8.0,43,-99.99,,,-99.99,,2013-02-02 21:32:00,
2013-02-02 13:42:00,51.0,28.0,-100.00,North,0,1.0,7.0,42,-99.99,,,-99.99,,2013-02-02 21:42:00,
2013-02-02 13:52:00,51.0,28.0,-100.00,North,0,1.0,7.0,42,-99.99,,,-99.99,,2013-02-02 21:52:00,
2013-02-02 14:02:00,50.0,28.0,-100.00,NE,45,4.0,8.0,43,-99.99,,,-99.99,,2013-02-02 22:02:00,
2013-02-02 14:11:00,52.0,29.0,-100.00,East,90,7.0,9.0,41,-99.99,,,-99.99,,2013-02-02 22:11:00,
2013-02-02 14:21:00,52.0,29.0,-100.00,East,90,7.0,9.0,41,-99.99,,,-99.99,,2013-02-02 22:21:00,
2013-02-02 14:32:00,52.0,29.0,-100.00,East,90,3.0,6.0,40,-99.99,,,-99.99,,2013-02-02 22:32:00,
2013-02-02 14:42:00,51.0,28.0,-100.00,East,90,5.0,8.0,40,-99.99,,,-99.99,,2013-02-02 22:42:00,
2013-02-02 14:52:00,50.0,28.0,-100.00,NW,315,5.0,8.0,43,-99.99,,,-99.99,,2013-02-02 22:52:00,
2013-02-02 15:01:00,50.0,28.0,-100.00,NW,315,5.0,8.0,43,-99.99,,,-99.99,,2013-02-02 23:01:00,
2013-02-02 15:11:00,49.0,28.0,-100.00,NW,315,4.0,7.0,44,-99.99,,,-99.99,,2013-02-02 23:11:00,
2013-02-02 15:21:00,49.0,28.0,-100.00,NW,315,4.0,7.0,44,-99.99,,,-99.99,,2013-02-02 23:21:00,
2013-02-02 15:32:00,49.0,28.0,-100.00,NW,315,6.0,8.0,45,-99.99,,,-99.99,,2013-02-02 23:32:00,
2013-02-02 15:41:00,49.0,29.0,-100.00,North,0,3.0,7.0,46,-99.99,,,-99.99,,2013-02-02 23:41:00,
2013-02-02 15:52:00,49.0,29.0,-100.00,North,0,3.0,7.0,46,-99.99,,,-99.99,,2013-02-02 23:52:00,
2013-02-02 16:01:00,48.0,28.0,-100.00,NW,315,5.0,8.0,46,-99.99,,,-99.99,,2013-02-03 00:01:00,
2013-02-02 16:11:00,48.0,29.0,-100.00,NW,315,3.0,7.0,47,-99.99,,,-99.99,,2013-02-03 00:11:00,
2013-02-02 16:21:00,48.0,29.0,-100.00,NW,315,3.0,7.0,47,-99.99,,,-99.99,,2013-02-03 00:21:00,
2013-02-02 16:31:00,48.0,28.0,-100.00,North,0,3.0,7.0,47,-99.99,,,-99.99,,2013-02-03 00:31:00,
2013-02-02 16:41:00,47.0,28.0,-100.00,North,0,5.0,6.0,48,-99.99,,,-99.99,,2013-02-03 00:41:00,
2013-02-02 16:52:00,47.0,28.0,-100.00,North,0,5.0,6.0,48,-99.99,,,-99.99,,2013-02-03 00:52:00,
2013-02-02 17:02:00,46.0,29.0,-100.00,North,0,5.0,6.0,50,-99.99,,,-99.99,,2013-02-03 01:02:00,
2013-02-02 17:11:00,46.0,28.0,-100.00,NW,315,1.0,6.0,50,-99.99,,,-99.99,,2013-02-03 01:11:00,
2013-02-02 17:21:00,46.0,28.0,-100.00,NW,315,1.0,6.0,50,-99.99,,,-99.99,,2013-02-03 01:21:00,
2013-02-02 17:32:00,45.0,28.0,-100.00,North,0,3.0,6.0,52,-99.99,,,-99.99,,2013-02-03 01:32:00,
2013-02-02 17:41:00,44.0,28.0,-100.00,North,0,3.0,5.0,53,-99.99,,,-99.99,,2013-02-03 01:41:00,
2013-02-02 17:52:00,44.0,28.0,-100.00,North,0,3.0,5.0,53,-99.99,,,-99.99,,2013-02-03 01:52:00,
2013-02-02 18:01:00,44.0,28.0,-100.00,NW,315,0.0,3.0,54,-99.99,,,-99.99,,2013-02-03 02:01:00,
2013-02-02 18:11:00,43.0,28.0,-100.00,NW,315,2.0,3.0,55,-99.99,,,-99.99,,2013-02-03 02:11:00,
2013-02-02 18:21:00,43.0,28.0,-100.00,NW,315,2.0,3.0,55,-99.99,,,-99.99,,2013-02-03 02:21:00,
2013-02-02 18:31:00,42.0,28.0,-100.00,North,0,2.0,3.0,57,-99.99,,,-99.99,,2013-02-03 02:31:00,
2013-02-02 18:41:00,41.0,28.0,-100.00,NE,45,1.0,3.0,59,-99.99,,,-99.99,,2013-02-03 02:41:00,
2013-02-02 18:52:00,41.0,28.0,-100.00,NE,45,1.0,3.0,59,-99.99,,,-99.99,,2013-02-03 02:52:00,
2013-02-02 19:02:00,41.0,29.0,-100.00,North,0,1.0,1.0,61,-99.99,,,-99.99,,2013-02-03 03:02:00,
2013-02-02 19:11:00,40.0,28.0,-100.00,West,270,2.0,3.0,62,-99.99,,,-99.99,,2013-02-03 03:11:00,
2013-02-02 19:21:00,40.0,28.0,-100.00,West,270,2.0,3.0,62,-99.99,,,-99.99,,2013-02-03 03:21:00,
2013-02-02 19:31:00,40.0,29.0,-100.00,West,270,2.0,3.0,64,-99.99,,,-99.99,,2013-02-03 03:31:00,
2013-02-02 19:41:00,40.0,29.0,-100.00,North,0,0.0,3.0,65,-99.99,,,-99.99,,2013-02-03 03:41:00,
2013-02-02 19:52:00,40.0,29.0,-100.00,North,0,0.0,3.0,65,-99.99,,,-99.99,,2013-02-03 03:52:00,
2013-02-02 20:01:00,39.0,29.0,-100.00,South,180,1.0,2.0,67,-99.99,,,-99.99,,2013-02-03 04:01:00,
2013-02-02 20:11:00,38.0,29.0,-100.00,South,180,4.0,6.0,68,-99.99,,,-99.99,,2013-02-03 04:11:00,
2013-02-02 20:21:00,38.0,28.0,-100.00,SW,225,4.0,6.0,69,-99.99,,,-99.99,,2013-02-03 04:21:00,
2013-02-02 20:31:00,38.0,28.0,-100.00,SW,225,4.0,6.0,69,-99.99,,,-99.99,,2013-02-03 04:31:00,
2013-02-02 20:42:00,37.0,28.0,-100.00,South,180,4.0,6.0,69,-99.99,,,-99.99,,2013-02-03 04:42:00,
2013-02-02 20:52:00,37.0,28.0,-100.00,South,180,4.0,6.0,69,-99.99,,,-99.99,,2013-02-03 04:52:00,
2013-02-02 21:03:00,37.0,28.0,-100.00,South,180,4.0,6.0,69,-99.99,,,-99.99,,2013-02-03 05:03:00,
2013-02-02 21:11:00,38.0,28.0,-100.00,South,180,3.0,6.0,69,-99.99,,,-99.99,,2013-02-03 05:11:00,
2013-02-02 21:22:00,38.0,28.0,-100.00,South,180,3.0,6.0,69,-99.99,,,-99.99,,2013-02-03 05:22:00,
2013-02-02 21:32:00,37.0,28.0,-100.00,SW,225,3.0,5.0,69,-99.99,,,-99.99,,2013-02-03 05:32:00,
2013-02-02 21:41:00,37.0,28.0,-100.00,South,180,3.0,4.0,69,-99.99,,,-99.99,,2013-02-03 05:41:00,
2013-02-02 21:52:00,37.0,28.0,-100.00,South,180,3.0,4.0,69,-99.99,,,-99.99,,2013-02-03 05:52:00,
2013-02-02 22:02:00,38.0,28.0,-100.00,West,270,1.0,4.0,68,-99.99,,,-99.99,,2013-02-03 06:02:00,
2013-02-02 22:11:00,37.0,28.0,-100.00,SW,225,3.0,4.0,69,-99.99,,,-99.99,,2013-02-03 06:11:00,
2013-02-02 22:21:00,37.0,28.0,-100.00,South,180,4.0,5.0,69,-99.99,,,-99.99,,2013-02-03 06:21:00,
2013-02-02 22:31:00,37.0,28.0,-100.00,South,180,4.0,5.0,69,-99.99,,,-99.99,,2013-02-03 06:31:00,
2013-02-02 22:41:00,37.0,28.0,-100.00,South,180,3.0,6.0,69,-99.99,,,-99.99,,2013-02-03 06:41:00,
2013-02-02 22:52:00,37.0,28.0,-100.00,South,180,3.0,6.0,69,-99.99,,,-99.99,,2013-02-03 06:52:00,
2013-02-02 23:01:00,36.0,27.0,-100.00,South,180,5.0,6.0,70,-99.99,,,-99.99,,2013-02-03 07:01:00,
2013-02-02 23:11:00,36.0,27.0,-100.00,South,180,4.0,7.0,70,-99.99,,,-99.99,,2013-02-03 07:11:00,
2013-02-02 23:21:00,36.0,27.0,-100.00,South,180,4.0,7.0,70,-99.99,,,-99.99,,2013-02-03 07:21:00,
2013-02-02 23:31:00,36.0,28.0,-100.00,SE,135,3.0,4.0,71,-99.99,,,-99.99,,2013-02-03 07:31:00,
2013-02-02 23:41:00,36.0,28.0,-100.00,South,180,7.0,8.0,72,-99.99,,,-99.99,,2013-02-03 07:41:00,
2013-02-02 23:52:00,36.0,28.0,-100.00,South,180,7.0,8.0,72,-99.99,,,-99.99,,2013-02-03 07:52:00,